Date String (YYYY-MM-DD hh:mm:ss) UTC,Instrument flags,absolute air pressure of the measurement (hPa),sample flow rate (lpm),inlet stack bypass flow (lpm),air temperature of the measurement (°C),ambient temperature measured by the external sensor (°C),aerosol sample conditioner tube jacket temperature (°C),OPC LED temperature (°C),internal box temperature (°C),relative humidity of the measurement (%),span deviation,mass concentration of particles derived from Lorenz-Mie calculation of OPC scattering (μg/m³),mass concentration of particles derived from Lorenz-Mie calculation of OPC scattering (μg/m³),mass concentration of particles derived from Lorenz-Mie calculation of OPC scattering (μg/m³)
DateTimeUTC,F1_M11,P_M11,Q1_M11,Q2_M11,T1_M11,T2_M11,T3_M11,T4_M11,T5_M11,U1_M11,ZSPAN_M11,X0_M11,X2_M11,X1_M11
2023-06-09 02:00:00,SystemResetWarning,0830.0,5.01,000.00,029.4,025.2,000.0,037.9,030.8,29.3,0000.0,0006.65,0003.67,0003.12
2023-06-09 02:01:00,SystemResetWarning,0830.0,4.99,000.00,029.3,025.6,000.0,037.9,030.7,29.4,0000.0,0008.10,0003.72,0003.13
2023-06-09 02:02:00,SystemResetWarning,0830.0,4.99,000.00,029.3,026.0,000.0,037.9,030.6,29.3,0000.0,0009.39,0003.71,0003.12
2023-06-09 02:03:00,SystemResetWarning,0830.0,5.00,000.00,029.3,026.4,000.0,037.9,030.6,29.6,0000.0,0009.62,0003.68,0003.12
2023-06-09 02:04:00,SystemResetWarning,0830.1,5.01,000.00,029.3,026.7,000.0,037.9,030.7,29.3,0000.0,0009.74,0003.61,0003.12
2023-06-09 02:05:00,SystemResetWarning,0830.0,5.00,000.00,029.3,027.0,000.0,037.9,030.7,29.9,0000.0,0009.69,0003.58,0003.11
2023-06-09 02:06:00,SystemResetWarning,0830.0,4.99,000.00,029.3,027.3,000.0,037.9,030.8,29.7,0000.0,0009.70,0003.55,0003.10
2023-06-09 02:07:00,SystemResetWarning,0830.1,4.99,000.00,029.3,027.4,000.0,037.9,030.8,29.9,0000.0,0009.72,0003.56,0003.09
2023-06-09 02:08:00,SystemResetWarning,0830.1,5.00,000.00,029.3,027.6,000.0,037.9,030.9,28.6,0000.0,0009.70,0003.54,0003.07
2023-06-09 02:09:00,SystemResetWarning,0830.1,5.01,000.00,029.4,027.7,000.0,037.9,030.9,28.6,0000.0,0009.70,0003.53,0003.06
2023-06-09 02:10:00,SystemResetWarning,0830.1,5.01,000.00,029.4,027.8,000.0,037.9,030.9,29.3,0000.0,0010.05,0003.59,0003.08
2023-06-09 02:11:00,SystemResetWarning,0830.1,5.01,000.00,029.4,027.9,000.0,037.9,031.0,29.6,0000.0,0010.09,0003.61,0003.08
2023-06-09 02:12:00,SystemResetWarning,0830.1,5.00,000.00,029.4,028.0,000.0,037.9,031.0,30.1,0000.0,0009.01,0003.60,0003.09
2023-06-09 02:13:00,SystemResetWarning,0830.1,4.99,000.00,029.4,028.1,000.0,037.9,031.0,28.5,0000.0,0007.89,0003.64,0003.10
2023-06-09 02:14:00,SystemResetWarning,0830.1,5.00,000.00,029.5,028.1,000.0,038.0,031.0,27.8,0000.0,0007.43,0003.66,0003.12
2023-06-09 02:15:00,SystemResetWarning,0830.1,4.99,000.00,029.5,027.7,000.0,038.0,031.1,27.0,0000.0,0007.31,0003.70,0003.13
2023-06-09 02:16:00,SystemResetWarning,0830.0,5.00,000.00,029.5,025.7,000.0,037.9,030.9,28.0,0000.0,0007.24,0003.72,0003.13
2023-06-09 02:17:00,SystemResetWarning,0830.0,5.01,000.00,029.5,024.9,000.0,037.9,030.9,28.9,0000.0,0007.26,0003.74,0003.14
2023-06-09 02:18:00,SystemResetWarning,0830.0,5.01,000.00,029.4,025.1,000.0,037.9,030.8,28.9,0000.0,0007.46,0003.78,0003.15
2023-06-09 02:19:00,SystemResetWarning,0830.0,5.01,000.00,029.3,025.5,000.0,037.8,030.7,27.9,0000.0,0007.79,0003.84,0003.16
2023-06-09 02:20:00,SystemResetWarning,0830.0,4.99,000.00,029.2,025.9,000.0,037.8,030.7,27.7,0000.0,0008.30,0003.86,0003.16
2023-06-09 02:21:00,SystemResetWarning,0830.1,5.00,000.00,029.2,026.2,000.0,037.8,030.7,28.0,0000.0,0008.02,0003.80,0003.15
2023-06-09 02:22:00,SystemResetWarning,0830.0,5.00,000.00,029.2,026.6,000.0,037.8,030.7,27.7,0000.0,0008.09,0003.81,0003.16
2023-06-09 02:23:00,SystemResetWarning,0830.0,4.99,000.00,029.2,026.9,000.0,037.8,030.7,27.1,0000.0,0008.14,0003.82,0003.16
2023-06-09 02:24:00,SystemResetWarning,0830.0,5.00,000.00,029.2,027.1,000.0,037.8,030.7,27.2,0000.0,0008.06,0003.83,0003.16
2023-06-09 02:25:00,SystemResetWarning,0830.0,5.00,000.00,029.2,027.3,000.0,037.8,030.7,27.0,0000.0,0008.50,0003.86,0003.16
2023-06-09 02:26:00,SystemResetWarning,0830.1,5.00,000.00,029.2,027.5,000.0,037.8,030.8,26.9,0000.0,0008.71,0003.87,0003.16
2023-06-09 02:27:00,SystemResetWarning,0830.0,4.98,000.00,029.2,027.6,000.0,037.8,030.8,26.7,0000.0,0008.88,0003.87,0003.15
2023-06-09 02:28:00,SystemResetWarning,0830.0,5.00,000.00,029.2,027.7,000.0,037.8,030.8,27.0,0000.0,0009.05,0003.90,0003.16
2023-06-09 02:29:00,SystemResetWarning,0830.0,5.00,000.00,029.3,027.8,000.0,037.8,030.8,27.0,0000.0,0008.98,0003.87,0003.16
2023-06-09 02:30:00,SystemResetWarning,0830.0,5.01,000.00,029.3,027.8,000.0,037.9,030.8,27.4,0000.0,0008.64,0003.81,0003.15
2023-06-09 02:31:00,SystemResetWarning,0830.0,5.00,000.00,029.3,027.9,000.0,037.9,030.8,27.5,0000.0,0008.20,0003.81,0003.16
2023-06-09 02:32:00,SystemResetWarning,0830.0,5.00,000.00,029.3,027.9,000.0,037.9,030.9,27.1,0000.0,0008.37,0003.84,0003.17
2023-06-09 02:33:00,SystemResetWarning,0830.0,5.01,000.00,029.3,028.0,000.0,037.9,030.9,26.9,0000.0,0008.66,0003.82,0003.16
2023-06-09 02:34:00,SystemResetWarning,0829.9,4.99,000.00,029.3,028.0,000.0,037.9,030.9,26.9,0000.0,0008.83,0003.80,0003.16
2023-06-09 02:35:00,SystemResetWarning,0829.9,4.99,000.00,029.3,028.0,000.0,037.9,030.9,26.7,0000.0,0009.72,0003.80,0003.17
2023-06-09 02:36:00,SystemResetWarning,0830.0,5.00,000.00,029.4,028.1,000.0,037.9,030.9,26.6,0000.0,0009.36,0003.77,0003.18
2023-06-09 02:37:00,SystemResetWarning,0830.0,4.99,000.00,029.4,028.1,000.0,037.9,030.9,26.4,0000.0,0009.09,0003.74,0003.17
2023-06-09 02:38:00,SystemResetWarning,0830.0,4.99,000.00,029.4,027.4,000.0,037.9,031.0,26.4,0000.0,0008.87,0003.75,0003.17
2023-06-09 02:39:00,SystemResetWarning,0829.9,5.00,000.00,029.4,025.3,000.0,037.8,030.9,26.9,0000.0,0008.76,0003.75,0003.17
2023-06-09 02:40:00,SystemResetWarning,0830.0,5.01,000.00,029.4,024.7,000.0,037.8,030.9,27.1,0000.0,0008.82,0003.75,0003.18
2023-06-09 02:41:00,SystemResetWarning,0830.0,5.01,000.00,029.3,025.0,000.0,037.8,030.6,27.1,0000.0,0009.00,0003.76,0003.17
2023-06-09 02:42:00,SystemResetWarning,0830.0,5.00,000.00,029.2,025.3,000.0,037.8,030.5,27.4,0000.0,0010.00,0003.76,0003.17
2023-06-09 02:43:00,SystemResetWarning,0830.1,5.00,000.00,029.2,025.7,000.0,037.8,030.5,27.4,0000.0,0010.04,0003.76,0003.18
2023-06-09 02:44:00,SystemResetWarning,0830.1,5.00,000.00,029.1,026.1,000.0,037.8,030.6,27.8,0000.0,0009.82,0003.78,0003.20
2023-06-09 02:45:00,SystemResetWarning,0830.1,5.01,000.00,029.1,026.5,000.0,037.8,030.6,28.1,0000.0,0009.68,0003.84,0003.21
2023-06-09 02:46:00,SystemResetWarning,0830.2,5.00,000.00,029.2,026.8,000.0,037.8,030.6,28.3,0000.0,0009.21,0003.88,0003.21
2023-06-09 02:47:00,SystemResetWarning,0830.1,4.99,000.00,029.2,027.0,000.0,037.8,030.6,28.4,0000.0,0008.87,0003.88,0003.20
2023-06-09 02:48:00,SystemResetWarning,0830.2,5.00,000.00,029.2,027.2,000.0,037.8,030.6,28.4,0000.0,0008.85,0003.89,0003.21
2023-06-09 02:49:00,SystemResetWarning,0830.3,5.00,000.00,029.2,027.4,000.0,037.8,030.7,28.2,0000.0,0008.82,0003.88,0003.24
2023-06-09 02:50:00,SystemResetWarning,0830.2,5.00,000.00,029.2,027.5,000.0,037.8,030.8,28.4,0000.0,0008.78,0003.87,0003.25
2023-06-09 02:51:00,SystemResetWarning,0830.3,5.01,000.00,029.3,027.7,000.0,037.8,030.8,28.3,0000.0,0008.70,0003.87,0003.27
2023-06-09 02:52:00,SystemResetWarning,0830.3,4.99,000.00,029.3,027.8,000.0,037.8,030.8,28.6,0000.0,0008.74,0003.93,0003.28
2023-06-09 02:53:00,SystemResetWarning,0830.3,5.00,000.00,029.3,027.9,000.0,037.8,030.9,28.8,0000.0,0008.49,0003.97,0003.30
2023-06-09 02:54:00,SystemResetWarning,0830.3,5.00,000.00,029.4,028.0,000.0,037.8,030.9,28.9,0000.0,0007.95,0004.00,0003.30
2023-06-09 02:55:00,SystemResetWarning,0830.4,5.01,000.00,029.4,028.1,000.0,037.9,031.0,28.7,0000.0,0007.94,0004.00,0003.29
2023-06-09 02:56:00,SystemResetWarning,0830.4,5.00,000.00,029.4,028.1,000.0,037.9,031.0,28.2,0000.0,0007.78,0003.94,0003.28
2023-06-09 02:57:00,SystemResetWarning,0830.4,5.00,000.00,029.5,028.2,000.0,037.9,031.0,27.8,0000.0,0007.84,0003.93,0003.27
2023-06-09 02:58:00,SystemResetWarning,0830.4,5.00,000.00,029.5,028.2,000.0,037.9,031.1,27.8,0000.0,0008.23,0003.91,0003.27
2023-06-09 02:59:00,SystemResetWarning,0830.5,4.99,000.00,029.5,028.3,000.0,038.0,031.1,27.7,0000.0,0008.85,0003.91,0003.26
